Regional Weather Roundup
Issued by NWS Upton, NY

Current Version | Previous Version | Text Only | Print | Product List | Glossary On
Versions: 1 2 3 4 5 6 7 8 9 10 11 12 13 14 15 16 17 18 19 20 21 22 23 24 25 26 27 28 29 30 31 32 33 34 35 36 37 38 39 40 41 42 43 44 45 46 47 48 49
000
ASUS41 KOKX 261507
RWROKX

REGIONAL WEATHER ROUNDUP
NATIONAL WEATHER SERVICE NEW YORK NY
1100 AM EDT SUN APR 26 2015

NOTE: "FAIR" INDICATES FEW OR NO CLOUDS BELOW 12,000 FEET WITH NO
SIGNIFICANT WEATHER AND/OR OBSTRUCTIONS TO VISIBILITY.

NYZ071-072-176-178-NJZ106-104-261600-
NEW YORK CITY METRO AREA


CITY           SKY/WX    TMP DP  RH WIND       PRES   REMARKS
CENTRAL PARK   SUNNY     56  27  32 E7        29.73S
LAGUARDIA APRT MOSUNNY   53  30  41 NE9       29.71S
KENNEDY INTL   MOSUNNY   58  27  30 VRB3      29.71S
NEWARK/LIBERTY MOSUNNY   57  27  31 E7        29.71S
BRNX BOT. GARD   N/A     55  32  41 NW3       29.70F
TETERBORO      SUNNY     56  30  37 VRB6      29.70S
$$

NYZ177-179-078>081-261600-
LONG ISLAND NEW YORK

CITY           SKY/WX    TMP DP  RH WIND       PRES   REMARKS
FARMINGDALE    SUNNY     56  31  38 NE7       29.70S
ISLIP          MOSUNNY   56  29  35 VRB7      29.68S
SHIRLEY        MOSUNNY   56  32  40 VRB6      29.70S
WESTHAMPTON    PTSUNNY   56  32  40 N9        29.70S
MONTAUK POINT    N/A     52  32  46 W7        29.70S
$$

NYZ052-065-067-261600-
HUDSON VALLEY

CITY           SKY/WX    TMP DP  RH WIND       PRES   REMARKS
WHITE PLAINS   MOSUNNY   55  29  36 NW7       29.69F
NEWBURGH       SUNNY     52  34  50 CALM      29.72S
MONTGOMERY     CLOUDY    55  32  41 VRB3      29.70F
POUGHKEEPSIE   PTSUNNY   56  33  42 N8        29.70F
ALBANY         CLOUDY    52  30  43 CALM      29.72F
$$

NJZ001-105-106-008-010-013-015-019>022-104-261600-
NEW JERSEY

CITY           SKY/WX    TMP DP  RH WIND       PRES   REMARKS
NEWARK/LIBERTY MOSUNNY   57  27  31 E7        29.71S
TETERBORO      SUNNY     56  30  37 VRB6      29.70S
CALDWELL       SUNNY     55  30  38 NE10      29.71F
MORRISTOWN     MOSUNNY   55  28  35 SE7       29.72S
SOMERVILLE     SUNNY     56  29  35 VRB3      29.69F
SUSSEX         SUNNY     54  29  38 MISG      29.72F
ANDOVER          N/A     53  27  36 E5        29.71F
TRENTON        SUNNY     55  30  38 E9        29.71R
MILLVILLE      SUNNY     57  35  43 NE8       29.69R
ATLANTIC CITY  SUNNY     54  34  46 NE18      29.70R
WRIGHTSTOWN    SUNNY     56  32  40 E9        29.69R
TOMS RIVER     SUNNY     52  32  46 NE13      29.72R
BELMAR         SUNNY     52  30  43 E10       29.71S
$$

PAZ047>061-062-071-261600-
EASTERN PENNSYLVANIA

CITY           SKY/WX    TMP DP  RH WIND       PRES   REMARKS
PHILADELPHIA   MOSUNNY   57  33  40 NE9G18    29.72R
ALLENTOWN      SUNNY     55  31  39 CALM      29.72S
SCRANTON       SUNNY     51  29  42 NE8       29.73S
$$

CTZ002-004>006-009-010-012-RIZ004-006-007-MAZ004-011-015-261600-
SOUTHERN NEW ENGLAND
 IN CT

CITY           SKY/WX    TMP DP  RH WIND       PRES   REMARKS
BRADLEY INTL   PTSUNNY   56  31  38 NE8       29.67F
HARTFORD       CLOUDY    53  33  46 VRB6      29.69F
DANBURY        CLOUDY    53  29  39 NE7       29.70F
WTRBRY/OXFORD  PTSUNNY   52  30  43 N12G17    29.69F
BRIDGEPORT     MOSUNNY   52  31  44 S9        29.70S
MERIDEN        PTSUNNY   56  30  37 NW6       29.69F
NEW HAVEN      PTSUNNY   52  33  48 SW7       29.69F
CHESTER        PTSUNNY   52  32  46 NW6       29.68F
GROTON         PTSUNNY   55  30  38 NW12      29.67F
WILLIMANTIC    CLOUDY    53  31  42 MISG      29.67F

 IN RI

CITY           SKY/WX    TMP DP  RH WIND       PRES   REMARKS
PROVIDENCE     MOSUNNY   55  30  38 VRB5      29.66F
BLOCK ISLAND   SUNNY     52  34  50 NW5       29.68S
WESTERLY       PTSUNNY   55  31  39 CALM      29.67F

 IN MA

CITY           SKY/WX    TMP DP  RH WIND       PRES   REMARKS
BOSTON         CLOUDY    49  34  56 E8        29.67F
WORCESTER      CLOUDY    50  30  46 N10       29.65S
WESTFIELD      CLOUDY    54  30  40 NE3       29.67F
PROVINCETOWN   CLOUDY   N/A N/A N/A NW6       29.67S
NANTUCKET      SUNNY     51  34  52 N12       29.66F
$$

ANZ330-335-338-340-345-350-353-355-261600-
COASTAL MARINE OBSERVATIONS


STATION/POSITION TIME  SKY/WX   TEMP    WIND        PRES    VSBY  WAVE
                                AIR SEA DIR/SP/G                  HT/PER
                 (UTC)          (F)     (DEG/KT/KT) (MB)    (MI)  (FT/S)
NY HARB ENTRANCE 1450            46 47   70/  6/  6 1005.9          1/11
4S FIRE IS       1403               44                N/A           1/11
20S FIRE ISLAND  1450            44 43   60/  6/  6 1006.0          1/11
23SW MTP         NOT AVBL
HUDSON CANYON    NOT AVBL
EXECUTION ROCKS  NOT AVBL
WESTERN LI SOUND NOT AVBL
CENTRAL LI SOUND NOT AVBL
EASTERN LI SOUND 1400            47     260/  6/  8   N/A
ROBBINS REEF     1400            50      50/  8/  9 1004.9
$$


>>>>>>>>>>>>>>>>>>>>>>>>>>>> KEY <<<<<<<<<<<<<<<<<<<<<<<<<<<
>                                                          <
>     SKY/WX - SKY CONDITION/PRESENT WEATHER               <
>     TMP    - TEMPERATURE IN FAHRENHEIT                   <
>     DP     - DEWPOINT IN FAHRENHEIT                      <
>     RH     - RELATIVE HUMIDITY IN PERCENT                <
>     WIND   - DIRECTION AND SPEED IN MPH                  <
>     PRES   - MEAN SEA LEVEL PRESSURE IN INCHES OF HG     <
>     WCI    - WIND CHILL INDEX                            <
>     VSB    - VISIBILITY IN MILES                         <
>     HX     - HEAT INDEX                                  <
>     TC     - TEMPERATURE IN CELSIUS                      <
>     VRB    - VARIABLE WIND DIRECTION                     <
>                                                          <
>>>>>>>>>>>>>>>>>>>>>>>>>>>> KEY <<<<<<<<<<<<<<<<<<<<<<<<<<<





USA.gov is the U.S. government's official web portal to all federal, state and local government web resources and services.